GFSNE_sfc_dewp_159.txt.gz
Dewpoint
70 70 69 70 69 70 69 68 64 61 60 64 66 69 70 72 72 71 71 70 69 68 67 67 68 68 68 67 67 66 66 66 66 66 66 66 66 66
70 69 69 69 70 70 70 68 67 65 62 65 67 69 70 73 72 72 71 70 68 67 66 66 66 66 66 66 65 64 64 64 64 64 64 64 64 64
69 69 69 69 69 69 69 69 69 67 65 66 67 70 69 67 72 71 70 67 68 66 66 65 64 64 64 64 63 63 63 63 63 62 62 62 62 63
69 68 69 70 69 69 69 69 69 68 67 65 66 68 68 67 70 68 68 67 66 65 64 63 62 61 61 61 61 61 61 61 61 61 60 60 60 61
69 69 68 68 68 69 69 69 69 69 68 67 67 68 69 70 70 68 66 64 65 64 62 61 60 60 59 59 58 57 56 56 57 58 59 58 57 57
69 70 69 69 69 69 69 69 69 68 68 67 67 67 68 69 69 67 64 62 61 59 59 59 58 58 58 57 56 55 54 54 54 55 55 55 55 54
70 70 70 70 70 69 70 69 69 68 68 67 66 66 67 67 67 68 66 62 62 61 59 56 56 56 56 56 55 54 54 53 53 52 52 52 53 53
70 70 70 70 70 68 67 68 69 69 68 67 66 65 65 66 66 67 65 63 61 61 59 58 61 59 57 53 55 54 53 53 52 52 51 51 51 51
70 70 70 70 69 70 67 66 66 66 67 68 66 66 65 66 65 66 64 64 62 60 61 59 61 58 54 55 56 54 54 53 52 52 51 50 49 49
71 71 71 70 70 70 69 68 68 67 66 68 69 68 68 66 66 66 64 57 57 61 64 60 59 53 53 54 56 54 53 52 51 50 50 49 48 48
69 70 71 71 67 64 68 67 64 62 59 60 62 64 62 63 63 62 58 59 54 54 57 59 59 53 52 51 54 55 53 51 50 49 49 48 47 47
67 68 65 69 64 62 68 66 64 63 61 60 61 61 62 62 62 62 57 57 54 48 51 52 58 54 53 52 52 53 52 52 50 49 49 49 47 44
67 69 69 62 60 59 61 66 65 62 61 61 60 59 59 61 61 61 60 55 49 47 55 50 51 49 54 52 51 51 50 51 50 50 50 49 48 47
60 67 70 60 57 57 59 62 59 61 61 60 60 59 59 59 58 56 55 56 57 55 56 52 49 48 48 49 52 52 51 52 50 49 50 49 49 49
60 61 61 57 54 55 57 58 59 62 61 60 58 59 58 57 56 56 57 57 56 55 53 52 51 49 46 47 50 52 52 52 52 51 51 50 49 48
60 61 59 59 58 59 59 59 63 63 62 59 57 57 58 57 57 56 55 55 55 52 50 53 49 48 46 45 45 45 46 42 44 46 44 44 48 50
59 61 61 61 59 59 59 59 59 57 56 56 56 56 55 55 56 57 56 56 52 48 47 48 48 49 48 46 44 44 44 44 44 44 43 42 43 47
59 59 58 58 57 57 57 57 57 56 56 55 55 55 54 54 54 53 54 53 50 48 46 46 43 42 43 43 48 45 45 44 45 44 43 41 40 42
57 57 56 56 56 56 56 55 55 55 56 55 54 54 54 54 52 52 52 48 45 44 45 46 41 41 39 39 44 48 43 43 41 40 43 42 41 42
54 54 55 55 55 55 55 55 55 55 55 54 54 54 53 52 48 45 43 43 43 46 45 44 42 42 40 41 44 42 46 42 41 41 41 43 43 46
53 53 55 55 55 55 55 55 55 54 53 53 53 52 50 46 46 46 44 44 46 44 43 43 46 49 46 43 42 43 45 47 45 42 42 41 40 40
53 53 53 54 54 54 54 54 53 52 51 50 49 48 47 47 46 46 45 46 46 43 44 46 43 42 41 40 39 39 39 40 43 47 48 46 41 38
54 55 54 53 54 52 50 50 49 48 48 50 49 48 46 45 45 46 46 47 44 45 44 42 42 42 41 40 40 39 37 38 39 38 38 46 47 48

GFSNE_sfc_dewp_162.txt.gz
Dewpoint
72 71 70 71 71 71 72 71 68 64 64 68 70 71 72 73 73 73 73 70 69 68 67 67 68 68 68 67 67 66 66 66 66 65 65 66 66 66
70 71 72 70 71 71 73 72 70 69 67 69 71 72 73 73 73 73 72 70 68 67 67 66 66 66 66 66 65 65 65 64 64 64 64 64 65 65
71 72 72 72 72 72 72 72 71 70 68 70 70 72 72 71 73 73 70 69 68 66 66 65 64 65 65 64 64 64 64 63 63 62 63 63 63 63
71 71 71 70 72 72 72 72 72 72 71 69 70 70 72 69 71 71 69 68 68 66 64 63 62 62 62 62 62 61 61 61 61 61 60 60 61 61
71 71 70 71 71 70 72 71 72 72 71 70 70 70 71 72 70 68 67 66 66 65 62 61 61 60 60 59 58 57 56 57 58 58 58 58 57 57
71 71 71 71 71 71 71 71 72 71 71 71 70 71 71 72 70 66 65 65 65 61 59 59 59 59 58 57 56 55 55 54 54 55 55 55 55 55
71 71 71 71 69 70 71 71 72 71 71 70 70 69 70 69 69 68 66 64 63 62 58 56 56 56 56 56 56 54 54 54 53 52 52 52 53 53
70 71 72 70 70 67 67 67 70 71 70 70 70 69 70 70 70 68 65 63 61 64 59 57 61 59 56 54 55 54 53 53 52 51 51 51 50 51
70 71 71 71 70 71 68 66 66 66 68 71 70 70 70 70 70 68 66 66 66 63 59 58 61 58 55 55 55 54 54 53 52 51 51 50 49 49
70 70 70 70 71 71 72 72 71 71 70 70 72 72 71 72 70 70 68 66 64 63 64 59 61 56 55 55 56 54 53 52 52 50 50 49 48 48
67 70 70 70 68 65 71 71 71 70 64 63 64 64 63 63 67 67 64 63 60 61 64 62 59 54 54 53 54 54 53 51 50 50 49 49 47 47
62 67 65 68 64 62 69 71 70 69 67 65 66 64 64 64 63 68 65 64 60 59 61 60 56 56 54 53 53 53 52 51 49 49 49 48 46 49
58 60 67 62 59 58 60 71 69 70 65 66 65 63 64 63 63 63 65 64 58 55 59 59 59 57 57 53 52 53 52 52 52 52 50 49 48 48
56 58 62 58 57 57 58 60 59 62 64 63 61 60 58 56 56 57 57 58 59 59 58 57 55 55 55 54 52 52 52 53 53 53 53 51 49 49
55 57 56 55 53 57 57 58 59 64 62 60 59 57 56 56 56 55 56 56 56 57 58 57 56 54 54 54 53 52 52 54 53 54 53 53 54 54
55 57 58 58 58 62 59 59 63 63 61 59 56 56 57 56 55 55 55 55 54 53 54 53 52 52 51 52 53 51 51 48 48 48 47 47 50 51
51 59 59 61 60 60 61 62 63 61 58 57 56 55 54 55 54 55 55 54 53 53 52 50 51 52 50 52 48 48 47 46 47 48 47 45 46 48
56 60 60 60 59 58 58 57 58 57 57 56 56 55 55 54 54 55 55 53 52 51 48 48 48 47 49 50 50 47 47 47 47 47 47 45 43 46
56 56 57 57 57 57 57 56 55 56 56 55 55 55 55 55 54 54 54 52 49 49 48 47 47 47 44 43 47 48 46 46 45 45 46 45 45 45
55 55 55 55 56 56 56 55 55 55 55 55 54 54 54 54 52 54 53 50 48 48 47 47 47 46 45 45 45 46 46 46 45 45 45 46 46 46
54 54 54 54 55 55 55 54 54 54 54 54 53 53 54 52 50 48 48 46 47 48 46 46 48 50 48 48 45 45 47 47 48 48 48 44 41 42
54 54 54 54 54 53 53 53 52 51 50 52 52 52 52 51 48 47 47 47 47 46 47 47 48 46 45 44 43 44 43 44 45 46 48 47 41 37
52 53 54 54 53 54 53 52 53 53 53 52 52 51 51 49 50 48 48 48 46 46 46 44 44 44 44 43 42 40 42 42 41 41 42 45 46 48

GFSNE_sfc_dewp_165.txt.gz
Dewpoint
73 73 71 68 70 70 72 69 66 62 60 64 65 72 73 72 73 73 74 70 70 69 68 68 68 69 69 68 67 66 66 66 65 66 66 66 67 67
70 72 73 70 73 71 77 74 71 70 63 65 66 71 73 72 74 73 73 71 69 68 67 67 67 67 67 66 66 66 65 65 64 64 65 65 66 66
73 72 73 75 68 70 74 76 75 75 68 66 69 71 73 74 73 74 72 73 71 67 67 66 65 65 65 65 65 65 64 63 63 63 63 63 64 64
72 73 72 72 73 73 71 73 74 75 74 71 75 68 72 74 74 72 71 70 70 67 65 64 64 63 63 63 62 62 61 62 61 61 61 61 61 62
72 72 72 73 72 70 72 71 73 75 76 72 71 69 75 72 71 70 70 69 70 65 63 62 61 61 60 60 59 58 57 58 58 58 59 59 59 59
73 73 72 72 72 74 73 74 75 74 74 72 66 69 75 74 72 69 67 68 67 63 61 60 59 59 58 57 57 57 55 55 55 55 55 56 57 56
72 72 73 72 70 71 72 73 75 73 73 69 71 70 70 71 70 69 67 66 66 66 62 59 55 55 54 56 56 55 55 54 53 53 52 53 54 54
69 70 71 71 71 68 67 68 72 74 73 69 66 68 70 72 73 69 66 64 62 65 63 62 57 55 54 53 55 54 53 52 53 52 51 51 51 52
69 68 67 66 70 71 69 66 67 66 68 73 71 70 71 72 75 71 67 67 67 66 64 60 57 55 53 54 55 54 53 53 52 52 51 50 50 49
68 70 70 70 70 71 72 71 72 72 71 69 71 71 72 76 77 75 71 70 68 65 65 60 62 56 54 54 55 54 53 52 52 51 50 49 49 48
61 65 69 71 68 65 71 70 71 71 66 65 66 64 63 65 71 72 70 65 63 62 65 62 59 56 54 55 56 53 53 52 51 51 50 49 48 47
57 59 59 62 62 62 70 71 72 70 70 71 71 67 65 67 64 72 70 66 63 61 64 60 56 56 52 55 56 55 54 51 50 50 50 49 48 51
54 55 56 57 58 59 60 71 71 71 71 71 71 68 67 66 64 65 68 67 63 60 62 60 57 58 55 53 55 56 57 54 51 50 49 49 48 48
53 54 56 55 54 54 57 62 59 63 71 69 66 63 61 60 59 59 59 60 61 61 61 61 58 58 53 53 52 55 56 56 54 53 53 51 50 50
53 53 53 53 53 55 57 58 58 65 66 64 63 59 59 57 57 57 58 57 56 56 57 60 60 59 57 56 53 53 54 54 54 53 53 52 52 53
53 55 55 55 56 57 61 61 63 65 64 62 59 58 58 57 57 57 56 55 54 54 55 57 57 57 55 57 53 52 53 53 52 50 48 48 50 50
52 55 57 57 58 60 62 62 63 62 58 57 56 56 56 56 55 56 55 54 52 52 52 53 55 55 56 56 54 52 50 48 47 49 48 44 43 45
53 58 60 60 60 61 61 61 61 59 57 57 55 55 54 54 54 55 55 53 52 52 51 51 49 48 48 50 52 47 47 46 47 49 47 43 40 43
56 55 56 57 58 58 58 58 57 58 57 56 56 55 54 54 53 53 52 50 49 49 48 50 50 48 44 43 46 48 46 46 45 44 44 44 43 43
55 54 54 55 56 56 56 56 56 56 56 56 55 55 54 53 52 52 53 50 49 49 49 51 47 45 43 44 44 46 48 46 44 43 42 43 43 46
55 54 54 54 55 55 55 56 56 55 56 55 55 55 54 54 53 53 52 48 48 47 46 46 49 52 50 48 45 45 46 47 49 47 47 41 40 38
55 55 55 54 54 54 55 54 54 53 53 53 53 53 53 53 53 52 50 48 46 47 46 48 50 48 46 44 42 47 45 45 44 47 48 45 38 34
54 55 56 55 55 54 54 53 53 53 52 51 51 51 51 50 49 47 45 45 46 47 47 46 46 46 44 43 42 40 45 43 39 39 41 47 47 47

GFSNE_sfc_dewp_168.txt.gz
Dewpoint
71 72 70 66 63 64 65 65 62 59 56 59 62 70 70 70 72 71 75 70 70 69 69 69 69 70 70 69 67 67 66 66 66 67 67 68 67 67
68 71 72 68 67 66 66 67 66 67 62 61 62 67 71 68 72 73 73 71 70 69 68 68 68 68 68 67 67 66 65 65 65 65 66 67 68 68
72 71 72 74 68 66 66 66 67 68 66 64 70 68 74 73 71 73 73 72 69 68 67 67 66 66 66 66 66 65 65 65 65 64 65 65 66 66
72 74 71 68 74 72 68 71 69 69 66 72 72 67 71 72 75 75 71 70 70 67 66 65 65 64 64 64 64 63 63 62 63 63 63 63 63 63
70 71 71 71 74 69 70 68 68 69 69 67 66 67 74 71 73 72 72 72 70 66 64 64 63 63 62 61 60 60 59 59 59 60 61 61 61 60
71 72 72 72 73 73 74 72 71 69 70 67 66 64 70 73 76 70 68 70 68 65 66 62 62 61 60 59 59 58 56 56 56 56 57 57 58 58
71 71 72 72 70 71 75 75 75 71 66 63 63 62 64 72 71 71 69 68 68 69 67 63 59 57 55 57 57 57 56 55 54 54 54 55 55 56
70 70 71 70 70 68 68 68 70 75 73 65 62 63 71 69 76 73 69 66 63 67 65 61 61 60 55 56 57 55 55 54 53 53 53 53 53 53
71 70 69 66 68 69 68 67 67 66 67 74 73 70 72 73 75 74 71 68 66 65 64 61 63 62 59 54 56 55 54 53 52 52 51 51 51 51
66 68 69 70 71 70 69 69 70 71 72 69 71 71 72 73 75 77 73 72 71 67 65 60 60 61 59 55 55 54 53 53 52 51 50 49 49 49
60 61 62 65 65 65 70 70 70 73 70 65 66 65 64 64 69 77 75 68 64 63 65 62 60 57 58 55 54 53 53 52 51 50 50 49 49 48
59 60 58 59 57 57 64 71 70 71 74 73 71 70 67 70 65 74 73 68 64 62 64 60 56 56 53 55 54 54 53 51 50 50 50 49 48 48
55 55 56 56 55 54 55 62 69 69 71 74 72 72 70 70 70 69 67 68 64 63 64 60 57 56 55 52 54 55 55 53 54 52 50 49 48 48
55 56 57 54 53 53 55 58 57 61 70 72 70 68 68 67 67 67 67 64 62 64 65 64 58 55 53 52 52 54 56 57 55 54 53 50 49 50
55 54 53 52 52 53 55 56 57 63 69 70 66 66 65 63 61 61 59 58 58 59 62 62 59 56 54 53 53 53 54 55 57 58 55 53 53 53
55 55 55 54 54 55 56 58 61 64 67 67 64 60 59 59 59 59 58 58 56 55 60 61 58 57 56 56 55 54 56 54 56 55 52 51 49 49
52 56 57 58 56 56 58 60 65 65 62 61 59 59 59 58 58 59 58 57 54 53 54 56 57 59 58 56 54 54 55 54 53 52 50 47 46 45
56 58 59 61 59 60 61 62 61 60 59 58 58 57 56 56 55 56 55 54 52 53 53 54 54 53 53 53 55 54 52 50 50 52 51 45 43 43
56 56 56 57 57 60 60 60 57 58 59 57 56 56 55 55 54 53 52 51 50 52 53 53 54 53 50 50 50 51 48 48 48 47 45 43 42 43
55 55 55 56 56 56 57 56 57 57 56 56 55 55 54 52 51 51 50 50 48 49 49 51 52 50 48 45 46 48 48 48 45 44 43 43 43 47
55 54 55 56 56 56 56 56 56 56 55 55 54 53 52 52 51 52 50 48 48 49 49 49 50 54 49 49 46 46 47 48 50 48 47 41 41 40
56 55 55 56 56 56 56 57 56 55 55 53 53 53 52 52 52 51 48 46 46 45 47 48 51 48 47 44 43 47 45 45 46 48 49 46 41 35
55 55 56 56 56 56 55 54 54 55 55 54 52 50 49 48 48 48 46 44 45 45 47 46 46 47 45 43 44 43 47 46 42 41 41 48 46 47

GFSNE_sfc_dewp_171.txt.gz
Dewpoint
70 71 71 66 63 60 60 62 60 58 57 67 63 67 68 73 73 71 75 71 71 70 70 70 70 71 70 69 68 68 67 67 67 68 68 68 68 67
69 72 74 68 66 66 67 63 62 64 62 65 72 73 71 70 74 71 75 71 70 69 69 69 69 69 69 68 68 67 66 66 66 66 68 68 68 68
73 73 74 76 68 68 67 68 66 63 62 63 69 69 75 73 71 73 73 72 70 69 68 68 67 67 67 67 66 66 66 66 66 66 66 67 67 66
73 75 72 69 76 76 70 74 70 70 66 72 68 66 73 76 73 76 75 76 71 68 67 66 66 66 65 65 65 64 64 64 64 64 64 65 65 64
72 73 72 74 75 71 73 69 69 68 69 67 65 68 68 70 73 74 74 73 71 68 66 65 65 64 64 63 62 61 60 60 61 61 62 62 62 62
74 74 74 74 74 75 73 74 73 71 70 68 65 63 64 70 72 71 70 71 69 67 66 64 64 64 63 61 61 59 57 57 57 57 58 59 59 60
73 73 73 73 71 72 75 75 75 75 68 66 65 64 64 71 71 73 70 69 69 69 65 62 61 60 60 60 59 59 58 57 56 56 56 56 56 57
72 73 73 71 71 68 68 68 72 75 73 68 66 64 70 70 71 75 73 68 65 68 66 62 62 58 57 56 58 58 57 56 55 55 55 54 54 55
71 71 71 68 70 71 69 66 67 66 68 74 74 72 72 74 75 75 73 70 68 67 68 65 63 62 58 57 58 57 55 54 54 54 54 53 52 52
65 65 67 69 70 69 72 71 71 72 72 69 71 73 74 76 77 77 75 72 73 69 68 63 63 59 57 57 57 55 54 53 52 52 52 51 50 50
63 64 64 64 62 61 64 68 71 72 67 65 66 66 67 65 69 75 71 70 64 64 67 63 60 57 56 55 55 54 53 52 51 51 50 49 49 48
61 63 59 60 57 57 61 61 62 66 71 73 75 69 67 69 66 71 71 70 66 64 64 60 57 56 52 54 53 52 52 52 51 51 50 49 49 48
54 54 55 56 54 54 54 59 59 61 65 70 73 75 75 73 70 71 68 71 67 65 64 59 57 56 54 51 52 52 53 52 53 52 51 50 49 49
55 55 57 54 52 52 54 55 55 57 59 63 70 72 71 71 69 69 67 64 66 68 64 64 59 57 54 51 50 53 54 53 55 53 53 51 49 49
56 56 54 52 52 53 53 54 55 56 58 61 68 68 68 66 63 60 60 61 62 65 67 63 61 58 55 52 51 52 53 55 55 56 57 55 53 53
57 58 57 55 54 55 55 56 56 57 60 62 67 62 62 62 62 62 60 58 57 58 62 60 58 56 54 54 53 53 54 54 56 56 58 59 56 56
51 57 58 59 58 56 56 56 59 61 63 64 61 60 60 59 60 60 59 58 56 55 56 58 58 58 57 55 53 54 54 56 55 56 58 54 53 51
56 57 57 58 60 60 60 60 62 61 60 60 59 59 58 57 57 57 56 55 54 54 55 56 56 55 55 56 56 55 56 57 57 56 54 51 47 47
55 55 56 57 57 59 58 58 57 58 59 58 57 57 56 55 54 54 54 53 52 52 54 55 55 53 51 51 54 52 54 52 52 52 51 50 48 48
55 55 55 56 56 57 57 57 56 57 57 57 57 56 55 53 53 52 51 51 51 51 52 54 53 52 51 51 51 52 49 54 51 49 47 47 45 49
55 55 56 56 56 56 57 56 56 56 56 55 55 54 53 52 51 51 50 48 49 50 51 52 53 55 55 53 49 49 49 49 51 51 53 44 43 43
55 57 57 57 57 57 57 56 55 54 54 53 53 53 51 49 48 48 49 48 50 50 50 51 55 53 51 46 45 50 48 48 50 50 49 47 42 39
55 55 56 57 57 57 56 55 55 55 55 52 50 48 46 44 46 46 46 45 46 48 49 47 46 47 47 46 47 46 50 47 43 42 42 48 48 47

GFSNE_sfc_dewp_174.txt.gz
Dewpoint
73 73 72 72 69 67 69 69 66 65 65 68 65 72 75 74 74 73 73 71 71 70 70 70 71 71 71 70 69 69 69 68 69 69 69 69 69 68
72 74 75 71 71 72 71 71 70 68 66 68 68 71 73 74 75 76 75 71 70 70 69 69 69 70 69 69 68 68 67 68 68 67 68 68 69 69
74 74 74 75 71 70 71 74 69 71 67 67 70 73 75 74 72 74 73 72 70 69 69 68 68 68 68 67 67 66 66 67 67 68 68 68 67 67
74 74 73 70 74 75 72 72 72 73 72 69 70 71 73 76 75 76 75 76 72 69 68 67 67 66 66 65 65 65 64 64 65 65 66 66 65 64
73 73 73 74 73 73 74 72 71 71 72 71 69 71 71 75 74 74 74 74 70 69 67 66 65 65 64 64 63 62 61 61 61 62 63 63 63 63
74 75 73 72 73 74 72 72 72 72 72 71 71 69 68 68 73 72 72 73 68 67 67 66 65 65 64 62 62 61 58 58 59 59 59 60 61 61
74 74 73 73 71 72 73 72 73 71 71 71 70 70 69 69 70 71 71 70 70 69 67 64 63 63 63 62 62 61 59 58 57 57 56 57 57 57
73 73 74 72 72 68 68 68 72 72 71 70 70 69 69 69 69 71 71 69 65 71 66 63 64 62 60 59 61 60 58 58 57 56 56 55 55 55
73 72 71 69 70 72 70 66 66 66 68 70 69 69 68 70 71 70 71 69 67 69 68 65 65 62 60 59 59 58 57 57 56 56 55 54 54 53
67 67 66 66 66 67 66 66 68 70 71 68 69 70 70 71 73 71 71 70 70 69 69 64 61 57 56 57 58 56 55 55 54 54 53 52 51 51
63 64 65 65 63 61 63 62 63 63 64 64 65 67 66 64 67 71 70 69 67 65 68 63 59 55 56 54 55 54 54 53 52 52 51 50 50 50
60 62 60 60 57 56 60 61 60 60 61 62 66 69 66 68 64 70 70 68 65 63 64 59 57 56 52 54 53 52 51 51 51 51 51 50 49 50
56 56 56 56 54 54 54 58 58 59 59 60 61 64 70 72 70 70 72 70 67 64 65 60 56 56 54 50 51 51 51 51 51 51 51 50 50 50
55 56 57 55 52 53 54 55 54 55 56 57 58 61 66 70 67 64 65 66 68 68 63 60 57 55 52 50 48 50 52 52 52 52 52 52 50 50
56 56 54 53 52 54 54 54 54 54 55 56 57 63 65 62 62 61 62 62 63 64 63 63 58 57 54 51 49 48 50 52 54 53 54 53 52 52
56 56 56 55 55 56 55 56 56 56 56 56 58 62 63 62 61 62 61 61 59 59 60 61 60 57 53 52 50 50 52 52 53 54 56 56 56 55
51 56 58 59 60 60 58 58 56 57 60 60 61 61 60 60 60 61 60 58 57 56 55 56 57 57 55 53 51 52 54 54 54 54 55 56 57 58
56 56 56 57 57 58 59 60 60 60 61 61 60 59 58 58 56 56 56 56 55 55 55 56 55 54 54 55 55 54 54 54 55 55 56 56 55 52
55 55 56 56 56 57 57 57 57 58 59 58 57 56 56 56 55 54 54 54 54 54 55 55 54 53 51 50 54 55 53 53 54 52 52 54 52 51
56 55 56 56 56 56 56 56 56 57 57 56 56 56 55 54 54 53 52 52 53 54 54 54 53 52 51 50 51 53 49 56 54 53 53 53 49 53
58 56 56 56 56 56 56 56 56 55 55 55 55 55 55 54 53 52 51 51 51 52 52 52 54 55 56 55 52 51 50 49 53 54 52 49 47 46
59 59 58 57 57 57 57 56 55 54 54 54 54 53 53 52 51 51 51 50 50 50 51 52 56 56 55 52 50 51 50 50 50 50 49 50 45 44
59 59 60 60 59 58 56 55 54 55 55 55 53 52 52 50 51 50 50 50 50 51 53 53 53 54 54 52 49 49 52 51 51 49 47 48 46 46

GFSNE_sfc_dewp_180.txt.gz
Dewpoint
69 69 68 69 69 68 68 68 63 61 61 61 66 71 72 74 71 71 72 70 70 70 69 69 70 71 72 72 71 70 70 69 69 69 69 70 70 68
71 70 70 70 70 70 70 68 67 65 62 65 66 70 73 73 71 71 72 71 70 69 68 69 69 70 70 70 69 69 68 68 68 68 68 69 69 70
70 70 70 70 70 70 69 69 68 67 65 67 67 69 71 71 72 73 73 71 70 68 68 68 68 68 69 68 68 67 67 67 67 67 68 68 68 68
69 69 69 70 70 70 70 70 69 69 68 66 67 68 70 71 71 71 72 73 70 69 67 67 67 67 67 66 65 65 64 65 65 66 67 67 67 67
69 70 70 70 69 69 69 69 69 70 68 68 67 68 69 70 70 70 70 71 70 69 67 66 66 66 65 64 63 62 61 61 62 63 64 64 64 65
70 70 70 70 71 70 70 70 69 69 68 68 67 67 68 68 69 68 68 68 68 70 69 67 67 67 65 63 63 62 60 59 59 60 60 61 62 63
72 72 72 72 71 70 70 69 69 69 67 67 66 66 66 67 67 67 67 67 67 67 67 66 66 67 66 64 64 65 63 60 59 58 58 58 58 59
69 70 72 71 70 68 67 67 69 69 68 68 68 67 67 66 66 66 65 67 66 68 66 66 65 63 64 64 64 63 61 60 59 59 57 57 56 56
66 66 65 66 64 63 63 64 65 65 67 68 68 67 67 67 67 66 66 65 65 67 66 63 64 61 64 63 62 61 60 59 58 58 57 56 54 54
59 59 59 59 61 61 61 61 62 62 63 65 67 67 68 69 69 69 68 65 65 67 66 61 59 57 60 61 60 60 59 58 57 55 54 53 52 51
57 57 57 56 57 58 55 55 56 57 60 60 60 60 60 61 63 66 67 66 64 65 66 58 56 54 55 55 58 58 56 55 54 54 54 52 50 50
55 54 56 56 55 55 54 53 53 54 56 56 57 57 58 59 61 64 65 66 65 64 62 56 55 54 52 53 53 54 54 53 52 52 51 51 50 52
53 54 54 55 54 53 54 54 54 55 56 56 55 56 57 58 60 63 65 65 65 64 63 59 57 54 52 49 50 51 52 51 51 51 50 50 50 52
52 53 54 54 52 53 54 54 54 55 56 56 55 55 56 57 58 61 64 67 69 67 63 60 57 54 51 48 47 49 50 50 50 50 51 50 50 50
53 54 54 52 52 54 56 56 55 55 55 54 54 55 58 60 62 63 63 62 61 64 62 59 57 52 50 49 47 47 47 49 50 50 51 51 50 50
54 54 56 56 56 57 58 59 57 56 55 55 55 57 59 61 61 62 61 60 58 57 59 58 56 55 52 50 49 47 48 47 50 51 52 52 52 52
49 55 56 57 57 57 57 58 59 58 56 57 57 58 60 60 60 61 59 59 57 56 54 55 55 54 52 51 49 48 48 50 50 52 52 51 52 53
52 55 55 56 56 56 56 56 57 58 59 57 59 58 57 57 57 57 58 57 55 54 54 53 53 52 52 52 51 49 50 51 51 53 53 51 51 54
52 55 55 55 55 56 56 56 56 56 57 58 57 56 56 56 56 56 56 55 54 54 54 54 53 52 50 49 52 52 51 52 52 52 53 52 50 52
52 52 54 55 55 55 55 55 55 56 56 56 56 56 56 55 55 55 55 54 54 54 53 53 53 52 51 50 51 52 51 52 50 50 51 51 52 50
54 53 52 52 54 55 55 55 55 55 55 56 55 55 55 54 54 54 54 52 52 53 52 52 53 54 53 52 50 50 49 50 51 51 50 50 47 45
54 54 53 52 53 55 54 54 54 54 54 53 53 54 53 53 54 54 54 52 52 51 51 52 53 52 50 49 47 47 46 42 47 52 53 50 44 43
56 56 54 54 53 53 55 54 52 53 52 52 51 51 51 51 51 51 51 51 50 50 49 49 50 50 49 48 48 46 44 41 39 40 40 50 51 51

GFSNE_sfc_dewp_183.txt.gz
Dewpoint
69 68 68 68 68 68 68 67 64 61 61 62 65 69 71 72 73 72 71 70 70 69 69 69 70 71 72 72 72 71 70 70 70 70 70 70 70 70
70 70 69 69 69 70 69 68 67 65 62 64 66 67 71 73 72 70 70 71 70 69 68 68 69 70 70 71 71 70 69 69 68 68 68 68 69 69
69 70 70 69 69 69 69 68 67 66 64 66 67 68 69 70 71 72 72 71 70 68 68 68 67 68 69 69 69 68 68 67 67 68 68 68 68 68
69 68 69 69 69 69 69 68 68 68 67 65 67 67 69 70 70 70 71 73 71 70 67 67 67 67 67 67 66 65 65 65 65 66 67 67 67 68
69 68 68 69 68 69 68 68 69 69 68 67 66 67 68 68 68 69 69 69 71 70 67 67 66 66 65 65 63 62 61 61 62 63 64 65 65 66
70 69 69 69 69 69 69 69 68 68 67 67 67 66 67 68 67 67 67 68 69 70 70 68 67 67 66 64 64 63 60 60 60 61 61 61 62 63
70 70 71 71 70 70 70 70 69 68 67 67 67 65 65 65 66 66 66 66 67 68 67 67 67 67 67 65 65 65 62 61 59 59 59 59 59 59
70 69 69 70 69 68 67 68 69 68 68 67 68 67 67 66 65 66 65 66 65 68 67 66 67 65 65 65 65 64 63 61 60 59 59 58 57 57
67 67 64 62 61 62 62 63 63 64 67 68 68 68 68 67 66 65 65 66 66 65 67 63 65 63 64 64 63 62 61 60 59 58 58 57 55 54
63 62 60 59 58 57 57 57 59 61 62 63 66 66 66 67 67 67 68 67 66 66 67 61 59 57 60 62 61 60 59 58 58 56 55 54 52 52
61 59 57 56 56 57 55 54 54 54 57 59 59 60 59 59 61 61 61 63 64 65 65 58 56 55 54 56 59 59 57 56 55 55 54 52 50 50
61 59 58 56 55 55 54 53 52 53 54 55 55 56 57 57 59 60 59 60 62 64 64 56 54 54 52 52 54 55 55 54 53 53 52 51 50 52
56 55 54 55 54 53 53 55 54 54 55 55 55 55 55 56 57 58 60 61 60 62 63 58 56 54 51 49 51 52 53 52 52 52 50 50 50 51
54 54 53 53 52 52 53 55 54 55 55 55 56 55 56 56 56 57 59 63 63 63 63 59 57 53 50 49 50 50 51 51 52 51 51 50 50 50
54 54 54 52 52 55 56 56 56 56 56 55 55 55 57 58 58 61 61 63 63 64 63 58 58 54 52 50 48 48 48 50 51 50 51 50 50 50
54 52 55 55 56 57 58 58 59 58 57 56 56 56 57 59 59 61 61 60 57 56 58 58 56 55 52 50 49 48 49 47 50 50 51 51 52 50
51 55 55 56 56 57 57 57 58 58 58 57 57 57 58 60 59 61 59 59 56 55 53 53 54 53 52 51 48 49 48 49 49 50 51 51 52 52
52 54 55 56 55 56 56 56 57 57 57 57 58 58 57 57 57 57 58 57 54 53 52 53 53 52 52 52 50 48 49 49 49 50 51 50 50 52
52 53 54 55 55 55 56 56 55 56 57 57 57 56 56 56 56 56 56 55 54 53 53 54 53 52 50 48 51 50 50 49 50 50 51 50 50 49
52 52 52 54 55 55 55 55 55 56 56 56 56 56 56 56 55 55 55 54 53 53 53 53 53 53 51 49 49 51 50 49 50 50 50 51 50 50
52 52 52 52 54 55 55 55 55 55 55 56 55 55 55 55 55 55 54 52 52 53 52 52 53 54 52 51 50 51 51 50 50 50 49 50 48 47
53 53 53 52 53 55 52 53 53 54 54 54 54 54 54 54 54 54 53 52 52 52 52 53 52 51 50 49 49 49 48 47 50 52 53 51 47 46
54 54 54 53 53 53 53 52 51 52 50 51 51 51 51 53 53 53 52 51 51 51 50 50 49 49 47 48 47 46 42 43 47 48 50 52 53 52

GFSNE_sfc_dewp_186.txt.gz
Dewpoint
71 71 70 70 70 69 71 70 67 65 64 66 68 71 74 74 73 73 75 71 70 69 69 69 70 71 72 72 72 72 71 71 71 70 70 70 70 70
71 72 72 71 72 72 72 71 70 68 65 66 69 70 72 71 74 74 73 71 70 69 68 68 68 70 70 71 71 71 70 70 69 69 69 69 69 69
71 72 72 72 70 71 71 72 71 69 67 69 69 71 71 73 73 74 74 73 73 68 68 67 67 68 69 70 70 69 69 68 68 68 68 68 68 68
71 71 71 70 72 71 70 71 71 71 70 69 70 71 71 72 73 73 73 74 74 71 67 67 66 66 67 67 67 67 66 65 66 66 67 68 68 68
72 71 71 71 71 71 72 71 70 71 71 70 70 70 71 71 72 72 72 73 73 71 67 66 66 66 66 65 64 63 61 61 62 63 65 66 66 66
72 72 71 71 71 71 70 71 71 70 71 70 70 70 71 70 71 71 71 71 71 71 71 69 68 67 66 65 64 63 60 61 60 60 61 62 63 64
71 72 72 71 70 70 72 72 71 71 70 70 70 70 70 70 70 71 70 70 70 71 69 69 69 70 69 66 67 66 62 61 60 59 59 59 60 60
71 72 72 70 70 67 66 67 70 71 71 70 70 69 68 69 70 70 69 68 68 71 68 68 69 69 68 68 66 64 62 61 60 59 58 57 57 57
70 70 68 67 62 62 61 61 62 64 66 69 68 69 69 70 70 69 69 70 70 70 69 67 67 65 66 66 63 62 61 60 59 58 57 56 56 55
65 62 61 61 60 59 59 59 59 59 61 61 65 65 66 67 69 69 69 69 70 69 69 64 61 59 61 63 62 61 60 59 58 57 56 54 53 52
62 61 60 59 58 58 58 57 57 56 56 57 58 59 59 59 60 64 64 63 64 66 67 63 58 56 56 56 60 59 58 56 55 55 54 53 51 51
62 61 59 59 58 56 57 57 56 56 56 57 58 58 58 59 58 61 64 62 62 63 65 62 57 56 53 53 55 57 56 55 54 53 53 51 50 52
60 59 59 55 54 53 53 56 56 57 57 57 57 57 59 59 60 61 61 59 61 62 66 61 58 56 53 52 52 54 55 54 54 53 51 50 50 51
56 56 55 53 52 52 54 55 54 55 57 56 56 56 57 59 59 59 61 62 63 62 66 63 58 56 52 51 50 52 53 53 53 52 52 50 50 50
56 55 54 52 52 54 56 56 56 59 58 57 56 57 58 59 60 60 60 61 63 64 65 65 60 55 56 52 49 50 50 51 53 52 52 51 50 50
54 55 55 55 55 57 58 58 59 59 58 58 57 58 59 59 60 61 61 62 59 55 59 63 60 57 56 52 51 50 50 49 51 51 51 51 52 50
53 56 56 57 57 58 57 58 58 59 59 59 58 58 58 59 60 61 60 59 56 54 53 53 54 54 53 52 50 51 50 50 51 51 51 51 52 52
54 55 55 56 56 57 57 57 58 58 58 59 59 58 58 57 57 58 58 57 55 53 52 53 53 52 52 52 52 50 50 50 51 51 51 50 50 52
56 54 55 56 56 56 57 57 57 57 58 59 58 57 57 57 57 56 55 55 53 53 53 54 54 54 52 49 50 51 49 50 50 50 50 50 48 50
55 56 55 56 57 57 57 57 57 57 57 58 57 57 57 56 56 55 55 54 53 53 53 54 55 54 52 50 49 50 50 49 49 48 50 51 52 52
56 56 56 56 56 57 57 57 56 56 57 57 57 57 56 56 55 55 54 52 53 53 53 53 54 54 52 52 50 50 50 50 51 50 52 49 50 51
55 56 56 56 56 56 57 56 55 55 55 55 55 55 55 55 54 54 54 53 53 53 53 53 54 53 52 51 50 50 50 51 51 52 52 52 49 46
52 55 57 57 56 56 56 55 55 55 54 54 54 54 55 55 55 54 53 53 52 52 52 52 51 51 51 51 50 48 48 49 50 50 51 52 53 53